Tracking 19476 objects as of 17-Jan-2019
HD Live streaming from Space Station
objects crossing your sky now

EKRAN 9

Track EKRAN 9 now!
EKRAN 9 is classified as:


NORAD ID: 13554
Int'l Code: 1982-093A
Perigee: 35,656.0 km
Apogee: 35,898.3 km
Inclination: 12.7 °
Period: 1,435.2 minutes
Semi major axis: 42148 km
RCS: 0.5011 m2 (medium)
Launch date: September 16, 1982
Source: Commonwealth of Independent States (former USSR) (CIS)
Launch site: TYURATAM MISSILE AND SPACE COMPLEX (TTMTR)
aabbcc
Your satellite tracking list
Your tracking list is empty




NASA's NSSDC Master Catalog

Two Line Element Set (TLE):
1 13554U 82093A   19015.84700324 -.00000229  00000-0  00000+0 0  9997
2 13554  12.6684 325.7902 0028747 305.4020 237.4652  1.00331098 92822
Source of the keplerian elements: AFSPC